STARLINK-4506 (53554 NORAD) Tracking and Keplerian Element Data

This shows tracking and keplerian element data for the satellite.

Feedback or suggestion? Click here.




ElementValue
Catalog53554
NameSTARLINK-4506
Epoch Orbit1444
Epoch Day325.01707644
Epoch Year2022
RAAN72.0974
Inclination53.2216
Eccentricity0.0001683
Argument of Perigee57.3111
Mean Anonmoly302.8044
Mean Motion15.08839266
Decay Rate-2.7E-06
L11 53554U 22101AD 22325.01707644 -.00000270 00000+0 11198-5 0 9995
L22 53554 53.2216 72.0974 0001683 57.3111 302.8044 15.08839266 14440



Live tracking and technical data element details for STARLINK-4506 (NORAD 53554). STARLINK-4506 can be tracked NOW for your location showing map with azimuth and elevation plus other details from your city location.







IsCatalogInMostPopularTable: catalog: 53554, numindb: 2
Update: records affected: 1



GetName: 53554 STARLINK-4506

Hit Count: updated at: Thu, 08 Dec 2022 20:52:59 GMT